Jackson, MN

8:05 AM CDT on May 28, 2017 (GMT -0500)
Jackson Municipal

Weather History for KMJQ - May, 2014

Change the Weather History Date:

Thursday, May 8, 2014

  Actual Average Record
Temperature  
Mean Temperature 64 °F -  
Max Temperature 78 °F 64 °F 86 °F (2017)
Min Temperature 51 °F 42 °F 39 °F (2004)
Growing Degree Days 14 (Base 50)    
Moisture  
Dew Point 54 °F    
Average Humidity 79    
Maximum Humidity 94    
Minimum Humidity 44    
Precipitation  
Precipitation 0.48 in - - ()
Sea Level Pressure  
Sea Level Pressure 29.62 in    
Wind  
Wind Speed 11 mph (NNW)    
Max Wind Speed 23 mph    
Max Gust Speed 30 mph    
Visibility 7 miles    
Events Rain , Thunderstorm    
Averages and records for this station are not official NWS values.
T = Trace of Precipitation, MM = Missing Value Source: NWS Daily Summary

Daily Weather History Graph

Daily Weather History Graph

Search for Another Location

Airport or City:

Trip Planner

Search our weather history database for the weather conditions in past years. The results will help you decide how hot, cold, wet, or windy it might be!

Date:

Astronomy

May. 08, 2014 Rise Set
Actual Time 6:02 AM CDT 8:30 PM CDT
Civil Twilight 5:30 AM CDT 9:03 PM CDT
Nautical Twilight 4:50 AM CDT 9:43 PM CDT
Astronomical Twilight 4:05 AM CDT 10:28 PM CDT
Moon 2:20 PM CDT (5/8) 2:46 AM CDT (5/8)
Length of Visible Light 15h 32m
Length of Day
14h 27m
Waxing Gibbous, 65% of the Moon is Illuminated
May 8
Waxing Gibbous
May 14
Full
May 21
Last Quarter
May 28
New
Jun 5
First Quarter

Hourly Weather History & Observations

Time (CDT) Temp. Dew Point Humidity Pressure Visibility Wind Dir Wind Speed Gust Speed Precip Events Conditions
12:12 AM 57.2 °F 50.0 °F 77% 29.61 in 10.0 mi North 13.8 mph - N/A   Clear
12:32 AM 55.4 °F 50.0 °F 82% 29.63 in 10.0 mi North 9.2 mph - N/A   Clear
12:52 AM 55.4 °F 50.0 °F 82% 29.64 in 10.0 mi North 11.5 mph - N/A   Clear
1:12 AM 55.4 °F 50.0 °F 82% 29.67 in 10.0 mi NNW 12.7 mph 18.4 mph N/A   Scattered Clouds
1:32 AM 55.4 °F 50.0 °F 82% 29.66 in 10.0 mi North 4.6 mph - N/A Rain Light Rain
1:52 AM 55.4 °F 50.0 °F 82% 29.64 in 10.0 mi North 10.4 mph - N/A   Mostly Cloudy
2:12 AM 55.4 °F 50.0 °F 82% 29.64 in 10.0 mi East 10.4 mph - N/A   Scattered Clouds
2:32 AM 55.4 °F 50.0 °F 82% 29.61 in 10.0 mi East 10.4 mph - N/A   Clear
2:52 AM 55.4 °F 50.0 °F 82% 29.68 in 7.0 mi WNW 18.4 mph 23.0 mph N/A   Scattered Clouds
3:12 AM 53.6 °F 50.0 °F 88% 29.67 in 7.0 mi NW 13.8 mph - N/A   Clear
3:32 AM 53.6 °F 48.2 °F 82% 29.68 in 7.0 mi NNW 15.0 mph - N/A   Clear
3:52 AM 53.6 °F 46.4 °F 77% 29.70 in 10.0 mi NNW 10.4 mph 16.1 mph N/A   Clear
4:12 AM 53.6 °F 46.4 °F 77% 29.71 in 7.0 mi NNE 8.1 mph - 0.02 in Rain Heavy Rain
4:32 AM 51.8 °F 46.4 °F 82% 29.65 in 7.0 mi NNE 10.4 mph 26.5 mph 0.07 in Thunderstorm Mostly Cloudy
4:52 AM 51.8 °F 46.4 °F 82% 29.67 in 7.0 mi North 11.5 mph - 0.07 in   Clear
5:12 AM 51.8 °F 48.2 °F 88% 29.71 in 7.0 mi North 5.8 mph - N/A   Scattered Clouds
5:32 AM 51.8 °F 48.2 °F 88% 29.71 in 7.0 mi North 4.6 mph - 0.01 in Rain , Thunderstorm Light Thunderstorms and Rain
5:52 AM 51.8 °F 48.2 °F 88% 29.73 in 7.0 mi NW 8.1 mph - 0.03 in Rain Light Rain
6:12 AM 51.8 °F 48.2 °F 88% 29.73 in 7.0 mi North 4.6 mph - N/A Rain Light Rain
6:32 AM 51.8 °F 48.2 °F 88% 29.76 in 5.0 mi SE 3.5 mph - N/A Rain Light Rain
6:52 AM 51.8 °F 48.2 °F 88% 29.69 in 3.0 mi NE 16.1 mph - 0.01 in Rain , Thunderstorm Light Thunderstorms and Rain
7:12 AM 51.8 °F 48.2 °F 88% 29.66 in 3.0 mi ENE 11.5 mph - 0.01 in   Light Drizzle
7:32 AM 51.8 °F 48.2 °F 88% 29.64 in 3.0 mi NNE 13.8 mph - 0.01 in   Mostly Cloudy
7:52 AM 51.8 °F 50.0 °F 94% 29.67 in 2.5 mi NNE 5.8 mph - 0.01 in Rain Light Rain
8:12 AM 53.6 °F 50.0 °F 88% 29.69 in 3.0 mi ESE 6.9 mph - N/A   Mostly Cloudy
8:32 AM 53.6 °F 50.0 °F 88% 29.69 in 3.0 mi ESE 9.2 mph - N/A   Overcast
8:52 AM 55.4 °F 51.8 °F 88% 29.69 in 3.0 mi North 9.2 mph - N/A   Overcast
9:12 AM 55.4 °F 51.8 °F 88% 29.70 in 3.0 mi NNW 10.4 mph 18.4 mph N/A   Overcast
9:32 AM 53.6 °F 50.0 °F 88% 29.70 in 2.0 mi North 9.2 mph - N/A   Overcast
9:52 AM 53.6 °F 50.0 °F 88% 29.69 in 2.5 mi NNE 10.4 mph - N/A   Overcast
10:12 AM 53.6 °F 50.0 °F 88% 29.71 in 2.5 mi NNE 6.9 mph - N/A   Overcast
10:32 AM 53.6 °F 50.0 °F 88% 29.70 in 2.5 mi NE 9.2 mph - N/A   Overcast
10:52 AM 55.4 °F 51.8 °F 88% 29.69 in 2.5 mi NE 9.2 mph - N/A   Overcast
11:12 AM 59.0 °F 53.6 °F 82% 29.67 in 3.0 mi East 11.5 mph - N/A   Haze
11:32 AM 59.0 °F 53.6 °F 82% 29.66 in 3.0 mi ENE 12.7 mph - N/A   Mostly Cloudy
11:52 AM 60.8 °F 55.4 °F 82% 29.65 in 4.0 mi East 12.7 mph - N/A   Haze
12:12 PM 62.6 °F 57.2 °F 82% 29.63 in 4.0 mi East 13.8 mph - N/A   Haze
12:32 PM 64.4 °F 57.2 °F 77% 29.63 in 5.0 mi East 9.2 mph - N/A   Haze
12:52 PM 64.4 °F 57.2 °F 77% 29.62 in 7.0 mi SE 9.2 mph - N/A   Overcast
1:12 PM 64.4 °F 57.2 °F 77% 29.62 in 4.0 mi SSE 4.6 mph - 0.03 in Rain Rain
1:32 PM 62.6 °F 59.0 °F 88% 29.62 in 1.0 mi Calm Calm - 0.24 in Rain , Thunderstorm Heavy Thunderstorms and Rain
1:52 PM 64.4 °F 60.8 °F 88% 29.59 in 3.0 mi Calm Calm - 0.30 in Thunderstorm Haze
2:12 PM 66.2 °F 60.8 °F 83% 29.59 in 4.0 mi Calm Calm - N/A   Haze
2:32 PM 68.0 °F 62.6 °F 83% 29.57 in 4.0 mi Calm Calm - N/A   Haze
2:52 PM 71.6 °F 62.6 °F 73% 29.53 in 5.0 mi ESE 10.4 mph - N/A   Haze
3:12 PM 73.4 °F 64.4 °F 73% 29.54 in 7.0 mi SSE 8.1 mph - N/A   Scattered Clouds
3:32 PM 77.0 °F 62.6 °F 61% 29.55 in 10.0 mi SSW 17.3 mph 21.9 mph N/A   Clear
3:52 PM 75.2 °F 60.8 °F 61% 29.54 in 10.0 mi SSW 11.5 mph 18.4 mph N/A   Scattered Clouds
4:12 PM 73.4 °F 62.6 °F 69% 29.54 in 10.0 mi SSW 15.0 mph 20.7 mph 0.04 in Thunderstorm Mostly Cloudy
4:32 PM 77.0 °F 59.0 °F 54% 29.54 in 10.0 mi SSW 23.0 mph 29.9 mph 0.04 in Thunderstorm Scattered Clouds
4:52 PM 77.0 °F 59.0 °F 54% 29.54 in 10.0 mi SSW 19.6 mph 25.3 mph 0.04 in   Clear
5:12 PM 77.0 °F 59.0 °F 54% 29.53 in 10.0 mi South 17.3 mph 28.8 mph N/A   Scattered Clouds
5:32 PM 77.0 °F 59.0 °F 54% 29.53 in 10.0 mi South 16.1 mph 25.3 mph N/A   Clear
5:52 PM 78.8 °F 55.4 °F 44% 29.52 in 10.0 mi South 17.3 mph 26.5 mph N/A   Scattered Clouds
6:12 PM 77.0 °F 55.4 °F 47% 29.51 in 10.0 mi South 17.3 mph 27.6 mph N/A   Scattered Clouds
6:32 PM 71.6 °F 59.0 °F 64% 29.53 in 7.0 mi SSW 12.7 mph 25.3 mph 0.02 in Rain , Thunderstorm Rain
6:52 PM 73.4 °F 60.8 °F 65% 29.52 in 10.0 mi South 21.9 mph 28.8 mph 0.02 in Rain Light Rain
7:12 PM 71.6 °F 59.0 °F 64% 29.52 in 10.0 mi South 17.3 mph 21.9 mph N/A   Scattered Clouds
7:32 PM 71.6 °F 59.0 °F 64% 29.52 in 10.0 mi WSW 21.9 mph - N/A   Clear
7:52 PM 69.8 °F 57.2 °F 64% 29.53 in 7.0 mi WSW 17.3 mph 23.0 mph N/A   Clear
8:12 PM 66.2 °F 59.0 °F 78% 29.54 in 7.0 mi WSW 13.8 mph - N/A   Clear
8:31 PM 64.4 °F 57.2 °F 77% 29.55 in 7.0 mi WSW 15.0 mph - N/A   Clear
8:52 PM 62.6 °F 55.4 °F 77% 29.56 in 7.0 mi WSW 16.1 mph - N/A   Clear
9:12 PM 62.6 °F 55.4 °F 77% 29.57 in 7.0 mi WSW 13.8 mph 20.7 mph N/A   Clear
9:32 PM 59.0 °F 55.4 °F 88% 29.59 in 4.0 mi WSW 10.4 mph - N/A   Clear
9:52 PM 59.0 °F 55.4 °F 88% 29.59 in 4.0 mi WSW 17.3 mph 25.3 mph N/A   Mostly Cloudy
10:12 PM 59.0 °F 51.8 °F 77% 29.60 in 7.0 mi WSW 17.3 mph 23.0 mph N/A   Overcast
10:32 PM 55.4 °F 51.8 °F 88% 29.61 in 7.0 mi WSW 19.6 mph 28.8 mph N/A   Overcast
10:52 PM 55.4 °F 50.0 °F 82% 29.61 in 10.0 mi WSW 19.6 mph 24.2 mph N/A   Overcast
11:12 PM 53.6 °F 50.0 °F 88% 29.61 in 10.0 mi WSW 19.6 mph 27.6 mph N/A   Overcast
11:32 PM 53.6 °F 50.0 °F 88% 29.61 in 10.0 mi WSW 16.1 mph 24.2 mph N/A   Overcast
11:52 PM 53.6 °F 50.0 °F 88% 29.61 in 10.0 mi WSW 19.6 mph 27.6 mph N/A   Overcast